Location: Liberec
(50.7830°N, 15.0500°E)
Time: 14:24:04
(UTC+02:00)

ISS - Visible Passes

Search period start: 17 July 2025 00:00
Search period end: 27 July 2025 00:00
Orbit: 415 x 418 km, 51.6° (Epoch: 17 July)

Date Brightness Start Highest point End Pass type
(mag) Time Alt. Az. Time Alt. Az. Time Alt. Az.
17 Jul -2.8 00:22:49 10° W 00:25:24 33° SW 00:25:24 33° SW visible
17 Jul -3.6 21:57:38 10° W 22:01:00 77° N 22:04:21 10° E visible
17 Jul -3.5 23:34:27 10° W 23:37:42 50° SSW 23:38:30 39° SSE visible
18 Jul -3.8 22:46:06 10° WNW 22:49:26 67° SSW 22:51:38 19° ESE visible
19 Jul -1.6 00:23:22 10° W 00:24:31 15° WSW 00:24:31 15° WSW visible
19 Jul -3.8 21:57:46 10° WNW 22:01:07 84° SSW 22:04:29 10° ESE visible
19 Jul -2.5 23:34:44 10° W 23:37:36 26° SSW 23:37:41 26° SSW visible
20 Jul -3.0 22:46:16 10° W 22:49:23 37° SSW 22:50:54 23° SSE visible
21 Jul -3.4 21:57:50 10° W 22:01:07 51° SSW 22:04:08 12° SE visible
21 Jul -1.4 23:35:39 10° WSW 23:37:01 13° SW 23:37:01 13° SW visible
22 Jul -1.9 22:46:40 10° W 22:49:08 19° SW 22:50:17 16° S visible
23 Jul -2.4 21:58:01 10° W 22:00:56 27° SSW 22:03:35 11° SSE visible
25 Jul -1.3 21:58:45 10° WSW 22:00:31 14° SW 22:02:17 10° S visible
